Dewpoint
71 71 71 71 72 72 72 73 73 73 73 73 73 73 73 72 72 72 72 71 71 70 70 70 70 70 70 70 70 70 70 70 70 70 69 69 70 69 69 69 69 69 70 70 70 70 71 71 71 71 70 71 70 66 63 63 62 62 62 61 67 61
71 71 71 71 71 72 72 72 72 72 72 72 72 72 72 71 72 71 72 71 70 71 70 69 69 71 70 70 70 70 70 70 70 70 69 70 70 70 70 70 70 70 70 70 70 68 68 69 69 69 69 69 67 63 62 61 61 61 63 59 66 63
71 71 71 71 71 71 72 71 72 72 72 72 72 72 71 71 71 71 71 70 70 70 69 69 70 70 70 70 70 70 70 70 70 70 69 70 70 70 70 70 70 70 70 70 69 66 66 66 64 66 65 63 63 62 62 61 60 60 61 63 64 66
70 71 71 71 71 71 72 71 72 72 71 71 71 71 71 71 70 70 70 69 69 69 69 69 72 71 71 70 70 70 70 70 70 70 70 70 70 70 70 70 70 70 70 69 67 65 66 65 63 62 60 59 59 60 60 59 59 59 60 60 65 68
70 71 70 71 70 71 71 71 71 71 71 71 71 71 71 70 70 70 69 69 68 68 68 68 69 69 69 69 67 67 68 67 67 66 70 65 65 66 67 66 65 67 66 67 66 65 63 62 62 61 60 59 59 59 59 59 59 59 59 59 66 69
70 70 70 70 70 71 71 71 71 71 71 71 71 71 70 70 70 69 69 69 69 68 67 67 67 66 68 68 67 66 67 66 65 65 67 66 64 64 64 64 64 65 64 63 64 63 61 63 61 59 58 59 59 59 58 58 58 59 59 60 64 70
69 70 70 70 70 71 71 70 71 71 71 70 71 70 70 70 69 69 69 69 68 67 66 66 66 65 67 68 67 67 66 66 66 65 66 65 64 64 64 64 63 64 62 61 61 60 60 59 58 58 57 57 57 57 58 57 58 58 59 63 66 70
68 69 69 70 70 70 70 70 70 71 70 70 70 70 70 70 69 69 68 68 69 68 66 65 65 64 66 67 67 67 66 66 66 65 65 65 63 62 62 63 64 63 62 61 59 58 58 57 56 56 56 56 57 58 58 58 58 59 60 64 67 70
68 69 69 70 69 70 70 69 70 70 70 70 70 70 70 69 69 69 69 68 68 67 66 64 64 63 65 66 66 66 66 66 66 66 64 64 64 62 61 61 62 63 62 61 60 58 58 57 58 60 57 56 57 57 58 58 60 62 62 64 66 68
68 68 69 69 69 69 69 69 69 69 69 69 69 69 69 69 69 69 68 68 68 66 65 63 63 63 64 65 65 65 65 65 65 65 64 63 64 63 61 60 61 62 61 61 60 60 63 63 63 63 62 62 62 60 61 61 61 61 61 61 64 67
68 69 69 69 69 68 69 69 69 69 69 69 69 69 69 69 69 69 69 68 67 65 64 64 63 61 62 64 65 65 65 65 64 64 64 63 63 63 62 60 60 61 61 62 63 65 67 65 64 63 62 59 61 61 61 62 62 63 63 63 65 68
68 68 69 69 69 68 68 68 69 69 69 69 69 69 69 69 68 68 68 68 66 65 65 64 63 61 60 63 64 64 64 64 64 64 64 63 62 62 61 60 62 66 65 66 66 66 66 65 64 63 61 61 62 63 62 62 63 63 64 64 62 64
67 68 69 68 68 67 68 68 69 69 69 69 68 68 68 68 67 67 67 67 65 64 66 65 63 62 62 61 63 64 63 64 64 63 63 63 62 61 61 65 66 67 66 65 64 64 65 64 63 62 62 63 63 64 64 63 63 63 63 62 62 63
67 67 68 68 68 67 68 67 69 69 69 69 68 68 68 67 66 66 66 66 64 64 65 66 65 64 64 62 63 64 64 63 64 63 63 63 64 66 66 66 65 64 67 64 64 64 64 63 62 62 63 64 63 64 64 63 63 62 62 61 62 62
67 67 68 68 68 67 67 67 68 68 68 68 68 67 67 66 65 65 65 65 64 64 64 65 67 66 65 64 64 64 64 64 64 63 64 66 67 66 66 66 65 64 65 64 64 64 63 62 63 63 63 65 63 65 64 63 62 61 61 61 61 63
66 66 67 68 67 67 67 67 68 69 68 68 68 67 66 65 64 64 65 65 64 64 64 65 66 66 65 64 64 63 63 63 63 66 67 67 66 66 67 67 66 65 63 64 64 62 62 62 63 63 63 63 63 64 63 62 61 61 62 61 61 61
66 66 67 67 67 67 67 67 68 68 68 68 67 66 65 64 64 63 64 64 64 64 64 65 66 66 65 63 63 63 62 63 64 66 67 66 66 66 65 67 66 66 65 63 64 63 62 62 62 63 63 63 63 64 62 61 61 61 61 61 59 59
66 66 66 67 67 67 67 67 68 68 68 67 67 66 64 64 64 63 63 64 64 64 64 64 65 66 65 64 63 62 62 63 66 66 65 65 66 66 66 66 65 66 66 64 62 62 61 61 62 62 61 61 62 62 62 61 61 65 58 59 59 60
66 66 66 67 67 67 67 67 68 68 67 67 66 65 64 64 64 64 64 64 64 64 65 64 65 66 65 66 63 61 62 65 67 66 66 66 66 66 66 66 65 65 66 64 62 63 61 61 61 61 61 61 61 60 62 62 60 59 59 60 62 62
66 66 66 67 67 67 67 67 67 67 66 66 66 64 63 64 64 64 64 64 64 64 64 65 65 65 65 66 65 65 66 66 66 66 66 66 65 65 65 65 65 65 64 64 64 63 61 59 59 58 59 59 58 59 61 61 59 59 61 59 59 60
66 66 66 67 66 66 66 66 66 66 66 66 65 64 63 64 64 64 64 64 64 64 64 65 66 65 65 68 67 68 67 65 66 66 66 65 65 66 66 66 66 65 63 62 62 63 61 59 56 54 55 56 58 60 64 62 59 59 59 59 59 60
65 66 66 66 66 66 66 66 66 66 66 66 65 64 62 63 64 64 64 64 65 64 64 65 66 65 66 67 67 66 65 65 65 65 65 66 66 69 67 67 67 63 64 61 61 62 60 57 54 52 53 55 56 58 61 60 58 59 59 60 59 60
65 65 66 66 66 66 66 66 66 66 66 65 66 65 64 63 64 63 64 64 65 65 64 64 66 67 67 67 66 66 65 65 65 66 66 65 65 65 66 66 64 62 61 61 62 62 59 56 52 55 55 53 51 54 56 56 57 58 58 59 60 59
65 65 66 66 66 66 66 66 66 66 66 66 65 66 65 64 64 63 64 64 65 65 64 65 66 66 66 66 66 66 65 65 65 66 66 65 64 64 65 65 64 64 61 57 59 60 61 59 57 53 48 51 50 53 54 52 53 56 58 57 61 61
65 64 65 66 66 66 66 66 66 66 66 66 65 65 64 63 63 63 63 64 64 65 65 66 66 66 66 66 66 66 65 65 65 66 66 65 65 65 66 65 63 63 59 57 57 58 60 61 58 56 54 53 51 51 50 52 53 54 56 54 56 59
65 65 65 66 66 66 65 65 65 65 65 65 64 64 63 63 63 63 63 64 65 66 66 66 66 66 66 66 65 65 65 65 66 66 65 64 65 65 65 65 64 63 60 59 58 58 57 59 59 60 57 55 54 52 51 52 51 50 54 56 55 57
65 65 66 66 66 66 65 65 65 65 65 64 64 64 64 64 64 66 66 66 66 66 66 66 66 66 66 66 66 65 65 66 65 65 66 65 65 65 65 63 63 61 59 60 59 57 57 57 56 57 58 58 59 57 54 52 49 50 49 52 53 54
65 65 66 66 66 65 65 65 65 65 65 64 64 64 64 64 66 67 66 66 65 65 65 66 66 66 66 66 66 66 66 66 65 65 65 65 65 65 63 62 61 61 61 60 59 59 58 57 55 54 58 55 57 57 56 55 53 52 50 48 49 53
65 65 65 66 66 65 65 65 65 64 64 65 64 65 65 65 67 67 65 64 64 63 64 66 66 66 66 66 66 66 66 66 65 65 66 64 64 64 63 62 61 60 60 60 60 59 58 57 55 54 53 53 54 54 54 54 54 53 50 47 48 49
65 65 65 66 66 65 65 65 65 64 64 64 65 65 65 65 66 65 64 63 63 62 63 64 65 65 66 66 66 66 66 65 65 66 66 65 64 63 63 62 60 60 61 60 60 58 58 57 56 55 54 53 53 52 52 52 52 51 51 50 48 48
65 65 65 65 65 65 65 65 64 65 64 64 64 64 64 65 66 64 63 63 62 62 62 63 64 65 65 65 65 66 65 65 65 66 65 65 64 64 63 62 61 60 59 59 59 58 57 56 56 56 55 54 53 52 51 50 50 50 49 48 48 49
65 65 65 65 65 65 65 65 65 65 64 64 64 65 64 65 65 64 63 63 63 62 62 63 63 64 65 65 65 65 65 65 65 65 65 64 64 64 62 61 60 60 60 59 58 57 56 55 55 56 55 54 53 54 53 52 52 52 51 49 49 49
64 65 65 65 65 65 65 65 65 65 64 64 64 65 64 65 66 64 63 63 62 62 62 62 63 64 64 65 66 65 65 65 64 64 64 64 64 64 61 60 60 59 58 57 56 56 55 54 55 55 55 54 53 53 53 52 53 52 51 51 50 47
64 65 65 65 65 65 65 65 65 65 65 64 64 65 64 65 66 64 63 63 63 62 62 62 63 64 65 65 65 65 65 65 64 64 64 64 63 63 61 59 58 58 57 57 57 56 56 55 55 55 54 53 53 53 52 52 52 52 51 50 48 47
64 64 64 65 65 65 65 65 65 65 65 65 64 65 65 65 65 63 63 63 63 63 63 63 63 64 65 65 65 65 65 65 64 64 64 64 63 62 61 59 58 57 58 58 57 56 55 55 55 54 53 53 52 52 52 51 52 51 51 50 49 48
64 64 64 64 65 65 65 64 65 65 65 65 64 64 65 65 65 64 63 63 63 63 63 63 64 65 65 65 65 65 65 65 64 64 64 63 62 60 59 58 57 57 57 58 55 55 55 55 54 54 53 52 52 51 51 51 51 50 50 50 50 49
64 64 64 64 64 64 64 64 64 64 64 64 64 64 64 65 64 64 63 63 63 63 63 63 64 65 65 66 65 65 65 65 65 63 62 61 60 59 58 58 57 57 56 56 55 55 55 54 54 53 52 52 51 51 51 51 50 51 51 51 51 49